Other Public Products
Issued by NWS Grand Forks, ND

Home | Current Version | Previous Version | Graphics & Text | Print | Product List | Glossary On
Versions: 1 2 3 4 5 6 7 8 9 10 11 12 13 14 15 16 17 18 19 20 21 22 23 24 25 26 27 28 29 30 31 32 33 34 35 36 37 38 39 40 41 42 43 44 45 46 47 48 49 50
000
FPUS83 KFGF 192231
OPUFGF
PRAIRIE TO PINES WEATHER ROUNDUP
NATIONAL WEATHER SERVICE EASTERN NORTH DAKOTA/GRAND FORKS ND
500 PM CDT SAT AUG 19 2017

 **SATELLITE DATA USED TO AUGMENT SKY COVER AT AUTOMATED STATIONS**
 *****  WEATHER ACROSS EASTERN NORTH DAKOTA  *****

CITY           SKY/WX    TMP DP  RH WIND       PRES   REMARKS
GRAND FORKS    FAIR      86  60  41 S21G28    29.72F
GRAND FORKS AF FAIR      83  58  41 S17       29.72F
GRAND CITY NWS NOT AVBL
BUXTON           N/A     83  60  46 S18         N/A
DEVILS LAKE    FAIR      82  62  50 S16       29.71S
FARGO          FAIR      81  61  50 S15G22    29.78F
WAHPETON ARPT  FAIR      77  61  57 S10       29.80F
$$

 *****  WEATHER ACROSS CENTRAL AND WESTERN NORTH DAKOTA  *****

CITY           SKY/WX    TMP DP  RH WIND       PRES   REMARKS
JAMESTOWN      FAIR      78  62  57 S16       29.75F
BISMARCK       FAIR      84  63  49 SW6       29.74S
MINOT          FAIR      90  45  21 W20G25    29.67S
MINOT AFB      FAIR      90  49  23 W21       29.65S
GARRISON         N/A     87  50  27 NW18G26   29.72S
WILLISTON      FAIR      84  49  29 NW23G32   29.79S
DICKINSON      FAIR      85  41  21 NW21G28   29.80R
HETTINGER      FAIR      83  46  27 NW13      29.85R
$$

 *****  OTHER OBSERVATIONS NORTHEAST NORTH DAKOTA  *****

CITY           SKY/WX    TMP DP  RH WIND       PRES   REMARKS
WALHALLA       FAIR      86  82  89 S16G25    29.66F HX 105
LANGDON        FAIR      82  61  47 S20G26    29.71S
CAVALIER       FAIR      84  61  45 S18G29    29.67S
GRAFTON        FAIR      81  59  47 S15       29.71F
CANDO          FAIR      84  63  48 S15G22    29.70F
FORT TOTTEN      N/A     82  61  48 S14       29.95S
ROLLA          FAIR      82  61  47 SW18G26   29.68F
RUGBY          FAIR      84  61  45 SW12G18   29.67S
 ***** THE ABOVE OBSERVATIONS ARE NON NWS ARE NOT QUALITY
        CONTROLLED AND MAY MIS-REPORT RAIN FOR SNOW...
$$

 *****  OTHER OBSERVATIONS SOUTHEAST NORTH DAKOTA *****

CITY           SKY/WX    TMP DP  RH WIND       PRES   REMARKS
COOPERSTOWN    FAIR      81  61  50 S14G25    29.76S
VALLEY CITY      N/A     79  63  57 S15G21    29.78S
OAKES          NOT AVBL
GWINNER        CLEAR     79  63  57 S13       29.78F
SHEYENNE NWR     N/A     82  62  50 S14       29.95S
BUFFALO          N/A     80  52  38 N15         N/A
WYNDMERE       NOT AVBL
 ***** THE ABOVE OBSERVATIONS ARE NON NWS ARE NOT QUALITY
       CONTROLLED AND MAY MIS-REPORT RAIN FOR SNOW...
$$

  *****  WEATHER ACROSS NORTHERN MINNESOTA  *****

CITY           SKY/WX    TMP DP  RH WIND       PRES   REMARKS
FLAG ISLAND    FAIR      81  64  57 CALM      29.74S
WARROAD        FAIR      82  63  51 S6        29.75F
ROSEAU         FAIR      84  57  39 S16       29.74F
HALLOCK        FAIR      88  55  33 S20       29.69F
THF RVR FALLS  FAIR      83  55  38 S18       29.78F
HALSTAD          N/A     80  59  48 S17         N/A
FOSSTON        FAIR      82  55  39 S14       29.81F
BAUDETTE       FAIR      82  55  39 SW9       29.77F
WASKISH        PTSUNNY   81  55  41 W8        29.80F
CROOKSTON      FAIR      82  59  44 SW17      29.75F
$$
  *****  WEATHER ACROSS CENTRAL AND WEST MINNESOTA  *****

CITY           SKY/WX    TMP DP  RH WIND       PRES   REMARKS
BEMIDJI        FAIR      81  55  41 SW9       29.82F
PARK RAPIDS    FAIR      80  58  46 S13       29.85S
WADENA         FAIR      77  57  50 SW9       29.85F
DETROIT LAKES  FAIR      77  59  53 S9        29.85S
MOORHEAD       FAIR      81  61  50 S14       29.79F
FERGUS FALLS   FAIR      79  63  57 S13       29.82F
ELBOW LAKE     FAIR      77  64  64 S13       29.85F HAZE
MORRIS MN      FAIR      79  63  57 S14       29.84F
STAPLES        FAIR      79  57  47 S12       29.86F
WHEATON        FAIR      79  63  57 SE12      29.83F
$$
  *****  WEATHER ELSEWHERE ACROSS MINNESOTA  *****

CITY           SKY/WX    TMP DP  RH WIND       PRES   REMARKS
DULUTH         FAIR      79  59  50 SW15      29.87F
INTRNTL FALLS  FAIR      80  53  39 W8        29.80S
ELY            FAIR      79  54  41 SW3       29.84F
CLOQUET        FAIR      79  55  44 SW9       29.87F
BRAINERD       FAIR      78  59  51 S13       29.87S
HIBBING        FAIR      77  56  48 VRB6      29.85F
ALEXANDRIA     FAIR      77  60  55 S15       29.89F
SAINT CLOUD    FAIR      79  59  50 S12       29.88F
MINNEAPOLIS    FAIR      80  60  50 VRB5      29.89F
$$

  *****  WEATHER ACROSS SOUTH DAKOTA  *****

CITY           SKY/WX    TMP DP  RH WIND       PRES   REMARKS
SIOUX FALLS    FAIR      80  63  55 S17       29.86F
BROOKINGS      FAIR      78  63  59 SE15      29.86F
WATERTOWN      FAIR      78  61  55 SE15G22   29.83F
HURON          FAIR      82  62  50 S16G25    29.80F
SISSETON         N/A     81  63  54 SE17      29.79F
ABERDEEN       FAIR      82  62  50 S15       29.79F
MITCHELL       FAIR      83  60  45 S18G24    29.82S
PIERRE         FAIR      92  59  33 SE12      29.74F HX  91
MOBRIDGE       FAIR      88  66  48 S12       29.73F HX  90
RAPID CITY     FAIR      94  42  16 NW8       29.85S HX  90
$$

  *****  SOME WEATHER IN NEARBY STATES *****

CITY           SKY/WX    TMP DP  RH WIND       PRES   REMARKS
GLASGOW MT     FAIR      80  38  22 NW16G25   29.90R
GREAT FALLS MT FAIR      76  38  25 VRB6      29.97F
CHEYENNE WY    FAIR      88  21   8 NW16G23   30.08F
SCOTTSBLUFF NE FAIR      95  34  11 VRB6      29.91F HX  90
OMAHA NE       FAIR      88  59  37 S12       29.89F
DES MOINES IA  FAIR      85  61  44 MISG      29.90F
DAVENPORT IA   FAIR      82  59  45 E3        29.96F
CHICAGO IL     FAIR      83  55  38 E12       29.94S
EAU CLAIRE WI  FAIR      77  58  51 SW5       29.91F
LA CROSSE WI   FAIR      83  58  42 SW8       29.92F
$$

  *****  SOME NATIONAL WEATHER *****

CITY           SKY/WX    TMP DP  RH WIND       PRES   REMARKS
LA GUARDIA NY  FAIR      87  63  44 W12       29.81F
RALEIGH NC     FAIR      92  67  43 N5        29.94R HX  95
ATLANTA GA     FAIR      89  64  43 W9        29.97F HX  90
NEW ORLEANS LA CLOUDY    85  76  74 NE9G23    29.94F HX  94
OKLAHOMA CITY  FAIR      93  68  43 S10       29.91F HX  97
ALBUQUERQUE NM PTSUNNY   90  37  15 CALM      30.09F
SALT LAKE CITY FAIR      94  35  12 S10       29.99F
LOS ANGELES CA FAIR      73  61  65 W14       29.93F
BOISE ID       FAIR      86  38  18 W10       29.98F
SEATTLE WA     FAIR      74  47  38 NW10      30.18F
$$

*** WEATHER ACROSS MANITOBA...SASKATCHEWAN AND ONTARIO ***
                ***ONTARIO***

CITY           SKY/WX    TMP DP  RH WIND       PRES   REMARKS
GERALDTON      SUNNY     75  54  46 W9        29.77S
THUNDER BAY    PTSUNNY   81  54  39 W13       29.78F
SIOUX LOOKOUT  PTSUNNY   81  52  36 W10G17    29.75F
TORONTO        PTSUNNY   72  55  56 W21       29.84R
BIG TROUT LK   SUNNY     77  55  47 W9        29.62F
PICKLE LAKE    PTSUNNY   81  52  36 W7        29.71F
DRYDEN         MOSUNNY   82  50  32 SW14G21   29.76F
KENORA         PTSUNNY   81  54  39 S12G18    29.76
$$
                *** MANITOBA***

CITY           SKY/WX    TMP DP  RH WIND       PRES   REMARKS
BRANDON        PTSUNNY   88  61  40 SW23      29.60S
DAUPHIN        SUNNY     86  61  42 W13G20    29.55R
ISLAND LAKE    MOSUNNY   84  54  34 SW6       29.58S
PILOT MOUND      N/A     82  59  44 S22         N/A
THE PAS        PTSUNNY   75  59  57 NW24G32   29.53R SMOKE
THOMPSON       LGT RAIN  79  54  41 SE7       29.51F
WINNIPEG       MOSUNNY   88  59  37 S24       29.63F
LYNN LAKE      CLOUDY    59  57  94 MISG      29.57F
CHURCHILL      FOG       52  52 100 NE3       29.63S VSB 3/4
GILLAM         PTSUNNY   73  55  53 NE7       29.58F
$$
                ***SASKATCHEWAN***

CITY           SKY/WX    TMP DP  RH WIND       PRES   REMARKS
ESTEVAN        PTSUNNY   81  50  34 NW24G32   29.76R
KINDERSLEY     MOSUNNY   70  34  26 NW16G33   29.92S
LLOYDMINSTER   MOSUNNY   64  41  42 W15G25    29.87S
PRINCE ALBERT  MOSUNNY   70  41  35 NW22G31   29.77R
REGINA         PTSUNNY   75  41  29 NW23G32   29.81R
YORKTON        SUNNY     73  55  53 NW22G31   29.69R



USA.gov is the U.S. government's official web portal to all federal, state and local government web resources and services.